#timestamp,LO_Frequency,Hit,StdDev 
1669561215.4,286046997.0,P
1669561235.2,286046999.1,N
1669561255.0,286047000.6,N
1669561255.9,286047000.6,N
1669561275.8,286046995.8,N
1669561295.6,286046990.5,N
1669561315.4,286046985.2,N
1669561335.3,286046976.8,N
1669561355.1,286046966.1,N
1669561375.9,286046960.4,N
1669561395.7,286046950.1,N
1669561415.5,286046948.9,N
1669561435.4,286046945.1,N
1669561455.2,286046944.0,N
1669561475.0,286046942.3,N
1669561475.9,286046942.3,N
1669561495.8,286046940.8,N
1669561515.6,286046935.9,N
1669561535.5,286046936.7,N
1669561555.3,286046932.9,N
1669561575.1,286046933.6,N
1669561595.9,286046928.6,N
1669561615.7,286046922.0,N
1669561635.5,286046915.4,N
1669561655.4,286046913.8,N
1669561675.2,286046914.0,N
1669561695.1,286046913.4,N
1669561696.0,286046913.4,N
1669561715.8,286046911.9,N
1669561735.6,286046914.0,N
1669561755.5,286046915.7,N
1669561775.3,286046918.7,N
1669561795.1,286046922.7,N
1669561815.9,286046924.0,N
1669561835.7,286046923.9,Y
1669561855.6,286046985.6,P
1669561875.4,286046984.4,N
1669561895.2,286046988.6,N
1669561915.1,286046987.6,N
1669561916.0,286046987.6,N
1669561935.8,286046987.4,N
1669561955.7,286046989.6,N
1669561975.5,286046987.2,N
1669561995.3,286046982.8,N
1669562015.2,286046981.5,N
1669562035.0,286046978.2,N
1669562035.9,286046978.2,N
1669562055.8,286046976.0,N
1669562075.6,286046978.0,N
1669562095.4,286046980.3,N
1669562115.3,286046981.8,N
1669562135.1,286046985.2,N
1669562155.8,286046988.1,N
1669562175.7,286046991.6,N
1669562195.5,286046997.7,N
1669562215.4,286047005.8,N
1669562235.2,286047013.3,N
1669562255.0,286047022.4,N
1669562255.9,286047022.4,N
1669562275.8,286047030.7,N
1669562295.6,286047035.1,N
1669562315.5,286047039.7,N
1669562335.3,286047048.9,N
1669562355.1,286047050.5,N
1669562375.9,286047053.0,N
1669562395.7,286047058.5,N
1669562415.5,286047059.5,N
1669562435.4,286047060.8,N
1669562455.2,286047061.4,N
1669562475.0,286047066.1,N
1669562476.0,286047066.1,N
1669562495.8,286047068.6,N
1669562515.6,286047073.5,N
1669562535.5,286047077.0,N
1669562555.3,286047079.9,N
1669562575.1,286047081.8,N
1669562595.9,286047085.8,N
1669562615.7,286047090.7,N
1669562635.5,286047091.2,N
1669562655.4,286047095.5,N
1669562675.2,286047094.3,N
1669562695.1,286047095.7,N
1669562696.0,286047095.7,Y
1669562715.8,286047043.9,P
1669562735.6,286047040.3,P
1669562755.5,286047042.7,P
1669562775.3,286047042.5,Y
1669562795.2,286046992.1,P
1669562815.9,286046987.7,N
1669562835.7,286046983.1,N
1669562855.6,286046983.4,N
1669562875.4,286046980.2,N
1669562895.2,286046981.7,N
1669562915.1,286046981.3,N
1669562916.0,286046981.3,N
1669562935.8,286046982.1,N
1669562955.7,286046987.4,N
1669562975.5,286046994.4,N
1669562995.3,286046997.6,N
1669563015.2,286047002.7,N
1669563035.9,286047004.2,N
1669563055.7,286047009.1,N
1669563075.6,286047010.7,N
1669563095.4,286047013.5,N
1669563115.3,286047013.8,N
1669563135.1,286047012.9,N
1669563136.0,286047012.9,N
1669563155.8,286047016.6,N
1669563175.7,286047020.3,N
1669563195.5,286047018.9,N
1669563215.3,286047024.1,N
1669563235.2,286047025.0,N
1669563255.0,286047023.1,N
1669563255.9,286047023.1,N
1669563275.8,286047019.0,N
1669563295.6,286047017.6,N
1669563315.4,286047019.6,N
1669563335.3,286047017.3,N
1669563355.1,286047021.9,N
1669563375.8,286047021.6,N
1669563395.7,286047022.4,N
1669563415.5,286047027.8,N
1669563435.4,286047030.9,N
1669563455.2,286047030.8,N
1669563475.0,286047030.6,N
1669563475.9,286047030.6,N
1669563495.8,286047031.7,N
1669563515.6,286047028.5,N
1669563535.4,286047029.3,Y
1669563555.3,286047006.6,P
1669563575.1,286047006.1,N
1669563595.9,286047006.7,N
1669563615.7,286047008.5,N
1669563635.5,286047006.3,N
1669563655.4,286047008.7,N
1669563675.2,286047012.3,N
1669563695.0,286047014.8,Y
1669563695.9,286047014.8,P
1669563715.8,286047009.1,P
1669563735.6,286047008.9,P
1669563755.5,286047005.8,N
1669563775.3,286047008.3,N
1669563795.1,286047007.2,N
1669563815.9,286047004.8,N
1669563835.7,286047008.5,Y
1669563855.5,286047003.2,P
1669563875.4,286047005.7,N
1669563895.2,286047005.9,N
1669563915.1,286047006.2,Y
1669563916.0,286047006.2,P
1669563935.8,286046998.4,P
1669563955.6,286046995.5,N
1669563975.5,286046992.8,N
1669563995.3,286046990.0,N
1669564015.1,286046987.5,N
1669564035.9,286046987.6,N
1669564055.7,286046990.6,N
1669564075.6,286046994.4,N
1669564095.4,286046993.4,N
1669564115.2,286046997.9,N
1669564135.1,286046994.2,N
1669564136.0,286046994.2,N
1669564155.8,286046995.7,N
1669564175.6,286046997.5,N
1669564195.5,286046999.5,N
1669564215.3,286046993.4,N
1669564235.2,286046993.4,N
1669564255.9,286046991.7,N
1669564275.7,286046993.1,N
1669564295.6,286046990.7,N
1669564315.4,286046993.4,N
1669564335.2,286046995.2,N
1669564355.1,286046996.7,N
1669564356.0,286046996.7,N
1669564375.8,286046995.3,N
1669564395.7,286046988.9,N
1669564415.5,286046986.8,Y
1669564435.3,286046986.1,P
1669564455.2,286046980.4,P
1669564475.0,286046975.3,P
1669564475.9,286046975.3,Y
1669564495.7,286046983.7,P
1669564515.6,286046981.0,P
1669564535.4,286046973.7,P
1669564555.3,286046966.8,Y
1669564575.1,286046983.3,P
1669564576.0,286046983.3,P
1669564595.8,286046977.3,P
1669564615.7,286046975.6,Y
1669564635.5,286046985.8,P
1669564655.4,286046982.6,P
1669564675.2,286046977.1,P
1669564695.0,286046970.2,Y
1669564695.9,286046970.2,P
1669564715.8,286046985.2,N
1669564735.6,286046981.7,N
1669564755.4,286046975.8,Y
1669564775.3,286046997.1,P
1669564795.1,286046997.4,N
